sat.trackr.live / text

‹ back to catalog

STARLINK-31293

NORAD 58952 · 2024-027X

PAYLOAD ACTIVE UNKNOWN

§ Identity

Operator
Country
US
Launch date
2024-02-10
Launch site
AFWTR
Launch vehicle
Mass (kg)
RCS (m²)

Purposes: comms

External: N2YO · Heavens-Above · Gunter

§ Orbital elements

Epoch: 2026-05-25T04:36:29.328768Z

Period
94.01 min
Inclination
53.1612°
Eccentricity
0.0001249
Mean motion
15.31696805 rev/d
Perigee alt
469.9 km
Apogee alt
471.6 km
Semi-major
6,848.9 km
B*
2.2968e-5
RAAN
314.1001°
Arg perigee
89.6571°
Mean anomaly
270.4574°
Rev number
12,904

§ Raw data

STARLINK-312931 58952U 24027X   26145.19200612  .00000348  00000+0  22968-4 0  99982 58952  53.1612 314.1001 0001249  89.6571 270.4574 15.31696805129040

JSON: /api/v1/satellites/58952 · /tle

For live sub-satellite position, see the globe view (requires WebGL).

§ Visibility from observer

Set your observer location to see the next 7 days of passes ≥ 10°. The values pass through the URL so the page stays shareable.

No JS? Fill the form by hand. The geolocation button needs JavaScript.